Weather History for Three Rivers, MI

Change the Weather History Date:

Tuesday, March 20, 2012

  Actual Average Record
Temperature  
Mean Temperature 70 °F -  
Max Temperature 81 °F 46 °F 81 °F (2012)
Min Temperature 59 °F 27 °F 9 °F (1965)
Cooling Degree Days 5    
Growing Degree Days 20 (Base 50)    
Moisture  
Dew Point 57 °F    
Average Humidity 63    
Maximum Humidity 83    
Minimum Humidity 41    
Precipitation  
Precipitation 0.00 in - - ()
Sea Level Pressure  
Sea Level Pressure 30.07 in    
Wind  
Wind Speed 7 mph (South)    
Max Wind Speed 18 mph    
Max Gust Speed 23 mph    
Visibility 10 miles    
Events      
Averages and records for this station are not official NWS values.
T = Trace of Precipitation, MM = Missing Value Source: NWS Daily Summary

Daily Weather History Graph

Daily Weather History Graph

Search for Another Location

Airport:

Trip Planner

Search our weather history database for the weather conditions in past years. The results will help you decide how hot, cold, wet, or windy it might be!

Date:

Astronomy

Mar. 20, 2012 Rise Set
Actual Time 7:44 AM EDT 7:55 PM EDT
Civil Twilight 7:17 AM EDT 8:23 PM EDT
Nautical Twilight 6:44 AM EDT 8:55 PM EDT
Astronomical Twilight 6:11 AM EDT 9:29 PM EDT
Moon 6:28 AM EDT (3/20) 6:21 PM EDT (3/20)
Length of Visible Light 13h 06m
Length of Day
12h 10m
Waning Crescent, 4% of the Moon is Illuminated
Mar 20
Waning Crescent
Mar 22
New
Mar 30
First Quarter
Apr 6
Full
Apr 13
Last Quarter

Hourly Weather History & Observations

Time (EDT) Temp. Heat Index Dew Point Humidity Pressure Visibility Wind Dir Wind Speed Gust Speed Precip Events Conditions
12:15 AM 69.4 °F - 57.2 °F 65% 30.02 in 10.0 mi SSE 8.1 mph - N/A   Clear
12:34 AM 68.9 °F - 57.2 °F 66% 30.02 in 10.0 mi SSE 5.8 mph - N/A   Clear
12:54 AM 68.0 °F - 57.2 °F 68% 30.02 in 10.0 mi SSE 6.9 mph - N/A   Clear
1:14 AM 67.5 °F - 57.2 °F 70% 30.02 in 10.0 mi South 6.9 mph - N/A   Clear
1:34 AM 66.7 °F - 57.2 °F 71% 30.02 in 10.0 mi SSE 6.9 mph - N/A   Clear
1:55 AM 68.0 °F - 57.2 °F 68% 30.02 in 10.0 mi SSE 6.9 mph - N/A   Clear
2:14 AM 67.5 °F - 57.0 °F 69% 30.02 in 10.0 mi SSE 8.1 mph - N/A   Clear
2:34 AM 67.1 °F - 57.0 °F 70% 30.02 in 10.0 mi South 8.1 mph - N/A   Clear
2:55 AM 65.1 °F - 56.8 °F 75% 30.03 in 10.0 mi South 6.9 mph - N/A   Clear
3:14 AM 64.8 °F - 56.7 °F 75% 30.03 in 10.0 mi South 6.9 mph - N/A   Clear
3:34 AM 63.7 °F - 56.7 °F 78% 30.03 in 10.0 mi South 6.9 mph - N/A   Clear
3:54 AM 63.1 °F - 56.5 °F 79% 30.03 in 10.0 mi South 4.6 mph - N/A   Clear
4:14 AM 62.6 °F - 56.5 °F 80% 30.04 in 10.0 mi South 4.6 mph - N/A   Clear
4:35 AM 61.9 °F - 56.5 °F 82% 30.04 in 10.0 mi South 3.5 mph - N/A   Clear
4:54 AM 62.4 °F - 56.3 °F 80% 30.05 in 10.0 mi South 3.5 mph - N/A   Clear
5:14 AM 61.5 °F - 56.3 °F 83% 30.05 in 10.0 mi Calm Calm - N/A   Clear
5:35 AM 61.2 °F - 56.1 °F 83% 30.06 in 10.0 mi Calm Calm - N/A   Clear
5:54 AM 63.3 °F - 56.3 °F 78% 30.06 in 10.0 mi Calm Calm - N/A   Clear
6:14 AM 62.4 °F - 55.9 °F 79% 30.06 in 10.0 mi Calm Calm - N/A   Clear
6:34 AM 62.6 °F - 55.9 °F 79% 30.06 in 10.0 mi SE 3.5 mph - N/A   Clear
6:54 AM 60.1 °F - 55.0 °F 83% 30.07 in 10.0 mi Calm Calm - N/A   Clear
7:15 AM 59.4 °F - 54.1 °F 83% 30.07 in 10.0 mi ESE 3.5 mph - N/A   Clear
7:34 AM 60.8 °F - 54.9 °F 81% 30.08 in 10.0 mi Calm Calm - N/A   Clear
7:54 AM 60.8 °F - 54.9 °F 81% 30.09 in 10.0 mi Calm Calm - N/A   Clear
8:15 AM 61.3 °F - 55.4 °F 81% 30.10 in 10.0 mi SE 3.5 mph - N/A   Clear
8:34 AM 63.0 °F - 55.4 °F 76% 30.10 in 10.0 mi Calm Calm - N/A   Clear
8:54 AM 63.1 °F - 56.5 °F 79% 30.10 in 10.0 mi Calm Calm - N/A   Clear
9:14 AM 64.9 °F - 55.8 °F 72% 30.11 in 10.0 mi Calm Calm - N/A   Clear
9:34 AM 66.7 °F - 56.5 °F 70% 30.11 in 10.0 mi SSE 3.5 mph - N/A   Clear
9:55 AM 68.5 °F - 56.5 °F 65% 30.12 in 10.0 mi SSE 8.1 mph - N/A   Clear
10:14 AM 70.2 °F - 56.8 °F 63% 30.12 in 10.0 mi South 9.2 mph - N/A   Clear
10:34 AM 69.8 °F - 57.2 °F 64% 30.12 in 10.0 mi South 6.9 mph - N/A   Clear
10:55 AM 70.7 °F - 57.6 °F 63% 30.12 in 10.0 mi SSE 8.1 mph - N/A   Clear
11:14 AM 72.7 °F - 57.9 °F 60% 30.13 in 10.0 mi South 10.4 mph - N/A   Clear
11:34 AM 74.3 °F - 58.6 °F 58% 30.13 in 10.0 mi South 8.1 mph - N/A   Clear
11:55 AM 75.2 °F - 59.0 °F 57% 30.12 in 10.0 mi South 10.4 mph - N/A   Clear
12:14 PM 76.5 °F - 59.9 °F 56% 30.12 in 10.0 mi South 11.5 mph - N/A   Clear
12:34 PM 77.2 °F - 60.1 °F 55% 30.11 in 10.0 mi South 9.2 mph - N/A   Clear
12:55 PM 76.3 °F - 59.9 °F 57% 30.11 in 10.0 mi South 9.2 mph 16.1 mph N/A   Clear
1:14 PM 77.0 °F - 59.9 °F 55% 30.11 in 10.0 mi South 11.5 mph 18.4 mph N/A   Clear
1:35 PM 77.9 °F - 59.4 °F 53% 30.11 in 10.0 mi South 13.8 mph 18.4 mph N/A   Clear
2:14 PM 80.6 °F 80.8 °F 57.2 °F 45% 30.10 in 10.0 mi SSW 11.5 mph 20.7 mph N/A   Clear
2:35 PM 81.0 °F 81.0 °F 57.0 °F 44% 30.09 in 10.0 mi SSW 15.0 mph 23.0 mph N/A   Clear
2:54 PM 81.3 °F 81.3 °F 57.7 °F 44% 30.08 in 10.0 mi South 16.1 mph - N/A   Clear
3:14 PM 81.0 °F 81.0 °F 57.0 °F 44% 30.08 in 10.0 mi South 16.1 mph 21.9 mph N/A   Scattered Clouds
3:54 PM 81.7 °F 81.4 °F 56.5 °F 42% 30.07 in 10.0 mi South 12.7 mph 16.1 mph N/A   Scattered Clouds
4:14 PM 81.5 °F 81.1 °F 55.6 °F 41% 30.06 in 10.0 mi South 16.1 mph 20.7 mph N/A   Clear
4:34 PM 81.5 °F 81.1 °F 55.4 °F 41% 30.06 in 10.0 mi South 18.4 mph 23.0 mph N/A   Clear
4:54 PM 81.5 °F 81.1 °F 55.8 °F 41% 30.06 in 10.0 mi SSE 10.4 mph 20.7 mph N/A   Clear
5:15 PM 81.1 °F 80.9 °F 55.2 °F 41% 30.05 in 10.0 mi South 17.3 mph - N/A   Clear
5:34 PM 81.0 °F 80.8 °F 55.8 °F 42% 30.05 in 10.0 mi South 15.0 mph 18.4 mph N/A   Clear
5:54 PM 80.6 °F 80.6 °F 56.1 °F 43% 30.05 in 10.0 mi South 9.2 mph - N/A   Clear
6:15 PM 80.4 °F 80.4 °F 55.4 °F 42% 30.05 in 10.0 mi South 11.5 mph - N/A   Clear
6:34 PM 80.1 °F 80.1 °F 55.0 °F 42% 30.05 in 10.0 mi South 11.5 mph 17.3 mph N/A   Clear
6:54 PM 79.2 °F - 55.8 °F 44% 30.05 in 10.0 mi South 8.1 mph - N/A   Clear
7:34 PM 78.1 °F - 55.8 °F 46% 30.05 in 10.0 mi SE 4.6 mph - N/A   Clear
7:54 PM 77.0 °F - 55.9 °F 48% 30.05 in 10.0 mi SE 4.6 mph - N/A   Clear
8:14 PM 75.7 °F - 55.8 °F 50% 30.06 in 10.0 mi SE 4.6 mph - N/A   Clear
8:34 PM 75.0 °F - 55.8 °F 51% 30.06 in 10.0 mi SE 3.5 mph - N/A   Clear
8:55 PM 74.7 °F - 55.4 °F 51% 30.07 in 10.0 mi SE 3.5 mph - N/A   Clear
9:14 PM 73.2 °F - 55.4 °F 54% 30.08 in 10.0 mi ESE 3.5 mph - N/A   Clear
9:34 PM 72.3 °F - 55.2 °F 55% 30.08 in 10.0 mi Calm Calm - N/A   Clear
9:54 PM 72.3 °F - 55.6 °F 56% 30.09 in 10.0 mi SE 3.5 mph - N/A   Clear
10:14 PM 71.6 °F - 55.9 °F 58% 30.10 in 10.0 mi SE 3.5 mph - N/A   Clear
10:35 PM 71.4 °F - 56.3 °F 59% 30.10 in 10.0 mi SE 4.6 mph - N/A   Clear
10:54 PM 71.6 °F - 56.3 °F 58% 30.11 in 10.0 mi SE 5.8 mph - N/A   Clear
11:15 PM 71.1 °F - 56.3 °F 60% 30.11 in 10.0 mi SE 6.9 mph - N/A   Clear
11:34 PM 70.9 °F - 56.3 °F 60% 30.11 in 10.0 mi SE 5.8 mph - N/A   Clear
11:54 PM 70.3 °F - 56.3 °F 61% 30.12 in 10.0 mi SE 6.9 mph - N/A   Clear